This demonstration page uses our WeatherBlox Daily Observations layout. Learn more.

Left ArrowRight Arrow

38.80484, -77.04692

Hourly Observations for November 20, 2020

Temp ( °F °C ) Dew Point ( °F °C ) Humidity (%) Winds ( mph kmh ) Pressure ( in mb ) Visibility ( mi km ) Precip ( " mm )
12:52 am 00:52 Mostly Cloudy 47 8.3 30 -1.1 52 52 S 8 13 30.42 1030 10 16.0934 0 0
1:52 am 01:52 Mostly Cloudy 46 7.8 31 -0.6 56 56 S 7 11 30.43 1031 10 16.0934 0 0
2:52 am 02:52 Mostly Cloudy 45 7.2 31 -0.6 58 58 S 8 13 30.43 1030 10 16.0934 0 0
3:52 am 03:52 Mostly Cloudy 46 7.8 31 -0.6 56 56 SSW 9 15 30.42 1030 10 16.0934 0 0
4:52 am 04:52 Mostly Cloudy 44 6.7 31 -0.6 60 60 SSW 9 15 30.42 1030 10 16.0934 0 0
5:52 am 05:52 Mostly Cloudy 43 6.1 31 -0.6 63 63 SSW 8 13 30.42 1030 10 16.0934 0 0
6:52 am 06:52 Mostly Clear 43 6.1 31 -0.6 63 63 SW 3 6 30.44 1031 10 16.0934 0 0
7:52 am 07:52 Sunny 45 7.2 34 1.1 66 66 S 7 11 30.45 1031 10 16.0934 0 0
8:52 am 08:52 Mostly Sunny 48 8.9 33 0.6 56 56 S 7 11 30.46 1031 10 16.0934 0 0
9:52 am 09:52 Mostly Sunny 50 10 35 1.7 57 57 S 16 26 30.43 1031 10 16.0934 0 0
10:52 am 10:52 Mostly Sunny 54 12.2 33 0.6 45 45 SSW 13 20 30.42 1030 10 16.0934 0 0
11:52 am 11:52 Mostly Sunny 57 13.9 35 1.7 44 44 S 8 13 30.39 1029 10 16.0934 0 0
12:52 pm 12:52 Mostly Sunny 60 15.6 36 2.2 41 41 S 9 15 30.35 1028 10 16.0934 0 0
1:52 pm 13:52 Mostly Sunny 61 16.1 38 3.3 43 43 S 10 17 30.33 1027 10 16.0934 0 0
2:52 pm 14:52 Sunny 62 16.7 39 3.9 43 43 S 8 13 30.31 1026 10 16.0934 0 0
3:52 pm 15:52 Sunny 63 17.2 37 2.8 38 38 SSW 9 15 30.32 1027 10 16.0934 0 0
4:52 pm 16:52 Clear 58 14.4 38 3.3 48 48 S 8 13 30.32 1027 10 16.0934 0 0
5:52 pm 17:52 Clear 55 12.8 38 3.3 53 53 SSW 8 13 30.32 1027 10 16.0934 0 0
6:52 pm 18:52 Clear 54 12.2 39 3.9 57 57 Calm 30.33 1027 10 16.0934 0 0
7:52 pm 19:52 Clear 53 11.7 41 5 64 64 SSW 5 7 30.32 1027 10 16.0934 0 0
8:52 pm 20:52 Clear 51 10.6 39 3.9 64 64 SSW 3 6 30.33 1027 10 16.0934 0 0
9:52 pm 21:52 Clear 49 9.4 42 5.6 77 77 Calm 30.33 1027 10 16.0934 0 0
10:52 pm 22:52 Clear 48 8.9 42 5.6 80 80 Calm 30.33 1027 10 16.0934 0 0
11:52 pm 23:52 Mostly Clear 48 8.9 43 6.1 83 83 SW 3 6 30.33 1027 10 16.0934 0 0

Powered by AerisWeather